Weather in Voskresenskoye

Russia / Kurgan Oblast     54°38′21″N   65°46′44″E
temp.,
°C
wind,
m/s
gust,
m/s
humid.,
%
clouds,
%
prec.,
mm/h
press.,
hPa
HPBL,
m
19 january, tue
tue1923:00−23w34920 0.0 102236
02:00−22wsw339239 0.0 102225
05:00−21w239170 0.0 102320
08:00−22nw008988 0.0 102320
11:00−19se118780 0.0 102420
14:00−17e238881 0.0 1023131
17:00−18e478890 0.0 1023157
20:00−17e5987100 0.0 1022234
20 january, wed
wed2023:00−17e61286100 0.0 1021266
02:00−16e71284100 0.0 1019332
05:00−16ese71482100 0.0 1017392
08:00−15ese71383100 0.1 1014516
11:00−15ese71295100 1.9 1012543
14:00−13se5894100 1.6 1011455
17:00−13sw4994100 1.9 1012343
20:00−17wsw61295100 0.1 1014281
21 january, thu
thu2123:00−19sw5119692 0.1 1015209
02:00−20sw5119658 0.0 1015231
05:00−22sw5119660 0.0 1015197
08:00−23sw599653 0.0 1015177
11:00−23wsw599426 0.0 1015245
14:00−22wsw599433 0.0 1015290
17:00−22wsw599664 0.0 1015250
20:00−24wsw499885 0.0 1016138
22 january, fri
fri2223:00−25wsw479851 0.0 101686
02:00−24wsw469787 0.0 1016118
05:00−24w479787 0.0 101697
08:00−25w469842 0.0 101784
11:00−23wsw489761 0.0 1017189
14:00−20sw369673 0.0 1016242
17:00−20ssw359886 0.1 1015193
20:00−19s2498100 0.6 1014229
23 january, sat
sat2323:00−19ese2298100 1.2 101353
02:00−20nne4698100 0.3 1015177
05:00−21n5896100 0.4 1019301
08:00−28n469765 0.0 1024105
11:00−30n359532 0.0 1028173
14:00−28n23940 0.0 1030191
17:00−31nne119533 0.0 103319
20:00−31ene1193100 0.0 103519